Hourly Data Report for October 01, 2017

All times are specified in Local Standard Time (LST). Add 1 hour to adjust for Daylight Saving Time where and when it is observed.

WESTERN HEAD
NOVA SCOTIA

43°59'24.070" N
64°39'51.008" W
10.10 m
8206240
71411
WWE

Download Data

Hourly Data (October 2017)
Hourly Data Report for October 1, 2017
Temp Definition
°C
Dew Point Temp Definition
°C
Rel Hum Definition
%
Wind Dir Definition
10's deg

Wind Spd Definition
km/h
Visibility Definition
km
Stn Press Definition
kPa
Hmdx Definition


Wind Chill Definition


Weather Definition


TIME
00:00 5.5 4.2 91 33 13   102.33     LegendNANA
01:00 5.2 4.2 93 33 13   102.32     LegendNANA
02:00 5.0 4.2 94 33 14   102.33     LegendNANA
03:00 4.8 3.9 94 33 14   102.30     LegendNANA
04:00 4.6 3.9 95 33 13   102.30     LegendNANA
05:00 4.3 3.6 95 33 13   102.31     LegendNANA
06:00 3.6 2.9 95 32 9   102.32     LegendNANA
07:00 4.5 4.1 98 32 10   102.35     LegendNANA
08:00 8.9 5.7 80 31 9   102.37     LegendNANA
09:00 12.0 6.3 68 31 12   102.38     LegendNANA
10:00 14.1 4.5 53 32 12   102.35     LegendNANA
11:00 15.0 4.5 49 31 8   102.30     LegendNANA
12:00 15.4 5.9 53 18 13   102.24     LegendNANA
13:00 16.5 7.3 54 19 17   102.12     LegendNANA
14:00 15.9 7.5 57 19 23   102.07     LegendNANA
15:00 16.0 9.2 64 20 26   101.98     LegendNANA
16:00 17.4 7.7 53 24 17   101.93     LegendNANA
17:00 15.9 7.0 55 24 18   101.88     LegendNANA
18:00 11.8 6.2 69 28 10   101.90     LegendNANA
19:00 9.6 5.2 74 27 12   101.94     LegendNANA
20:00 8.7 4.8 77 29 10   101.93     LegendNANA
21:00 9.4 6.2 80 30 18   101.90     LegendNANA
22:00 10.1 6.8 80 30 24   101.86     LegendNANA
23:00 10.3 7.2 81 32 24   101.81     LegendNANA

Notes on Data Quality.

Legend

  • E = Estimated
  • M = Missing
  • NA = Not Available
  • ‡ = Partner data that is not subject to review by the National Climate Archives
Date modified: